Regional Weather Roundup
Issued by NWS Northern Indiana

Home | Current Version | Previous Version | Graphics & Text | Print | Product List | Glossary On
Versions: 1 2 3 4 5 6 7 8 9 10 11 12 13 14 15 16 17 18 19 20 21 22 23 24 25 26 27 28 29 30 31 32 33 34 35 36 37 38 39 40 41 42 43 44 45 46 47 48 49 50
000
ASUS43 KIWX 262010
RWRIWX

KIWX WEATHER ROUNDUP
NATIONAL WEATHER SERVICE NORTHERN INDIANA
300 PM EST THU FEB 26 2015

NOTE: "FAIR" INDICATES FEW OR NO CLOUDS BELOW 12,000 FEET WITH NO
SIGNIFICANT WEATHER AND/OR OBSTRUCTIONS TO VISIBILITY.

* THESE STATIONS ARE NOT UNDER NWS QUALITY CONTROL. THEY ALSO MAY NOT
  REPORT WEATHER SUCH AS PRECIPITATION OR FOG.

INZ001>027-262100-
NORTHERN INDIANA

CITY           SKY/WX    TMP DP  RH WIND       PRES   REMARKS
GARY*          LGT SNOW  19   7  58 N12G23    30.24S WCI   7
VALPARAISO     MIX PCPN  17   4  56 NE10      30.22R WCI   5
MICHIGAN CITY* MOSUNNY   16   0  48 N12G21    30.23S WCI   3
LAPORTE*       SUNNY     17   6  62 N16       30.21R WCI   2
KNOX*            N/A     18  -9  29 N17       30.20R WCI   2
SOUTH BEND     SUNNY     16  -1  47 N16       30.20R WCI   1
ELKHART*       PTSUNNY   18   0  45 N6        30.18S WCI   9
GOSHEN         CLOUDY    17   6  62 NW12      30.16S WCI   4
MONTICELLO*    CLOUDY    18  10  71 N10       30.19R WCI   6
LOGANSPORT*    CLOUDY    19   9  63 N9        30.19R WCI   9
ROCHESTER*     PTSUNNY   21  10  63 N8        30.19R WCI  12
WARSAW*        FAIR      18   7  62 N8        30.17R HAZE    WCI   7
ANGOLA*        MOSUNNY   14   0  52 N9        30.15R WCI   2
FORT WAYNE     CLOUDY    18   5  57 NW6       30.16R WCI  10
HUNTINGTON*    CLOUDY    17   2  52 N7        30.16R WCI   8
PERU/GRISSOM   FLURRIES  18  10  68 N9        30.16R WCI   7
MARION*        CLOUDY    17   6  61 NE10      30.16R WCI   5

$$
INZ028>050-262100-
CENTRAL INDIANA

CITY           SKY/WX    TMP DP  RH WIND       PRES   REMARKS
LAFAYETTE      LGT SNOW  18  13  80 N8        30.20R VSB 1   WCI   8
KOKOMO*        MOSUNNY   19   9  63 N10       30.17R WCI   8
MUNCIE*        CLOUDY    16   7  67 N13       30.14R WCI   2
INDIANAPOLIS   CLOUDY    20   9  62 N14       30.14R WCI   7

$$
MIZ043>046-050>051-056>058-064>065-071>073-077>080-262100-
SOUTHWEST LOWER MICHIGAN

CITY           SKY/WX    TMP DP  RH WIND       PRES   REMARKS
BATTLE CREEK   MOSUNNY   16   1  51 N12       30.16R WCI   3
BENTON HARBOR  SUNNY     13  -4  46 N8G20     30.23R WCI   2
COLDWATER*     CLOUDY    14   2  59 N5        30.15R WCI   6
HILLSDALE*     CLOUDY    15   4  61 NW10      30.12R WCI   2
HOLLAND        SUNNY     14  -5  42 NE7       30.23R WCI   4
GRAND RAPIDS   PTSUNNY   13  -3  49 N8        30.20S WCI   2
KALAMAZOO      MOSUNNY   15   2  56 N8        30.18R WCI   4
STURGIS*       PTSUNNY   14   3  62 N8        30.16R WCI   3
THREE RIVERS*  PTSUNNY   16   4  58 NW6       30.18R WCI   7

$$
OHZ001>008-015>018-024>025-262100-
NORTHWEST OHIO

CITY           SKY/WX    TMP DP  RH WIND       PRES   REMARKS
WAUSEON*       CLOUDY    14   5  67 N9        30.15S WCI   2
DEFIANCE       CLOUDY    16   5  62 NE6       30.17R WCI   7
FINDLAY        MOSUNNY   15   5  64 N15       30.13R WCI   0
TOLEDO EXPRESS CLOUDY    14   5  67 NW12      30.15R WCI   0
TOLEDO METCALF PTSUNNY   17   5  59 NE7       30.17R WCI   8
LIMA           CLOUDY    14   4  64 NE12      30.12R WCI   0

$$
AND FOR LAKE MICHIGAN COASTAL AND OPEN LAKE BUOY OBSERVATIONS

STATION/POSITION TEMP    WIND        PRES    VSBY  WAVE
                 AIR SEA DIR/SP/G                  HT/PER
                 (F)     (DEG/KT/KT) (MB)    (MI)  (FT/S)
CALUMET HARBOR    18     340/ 12/ 18 1022.7R
MICHIGAN CITY     14      10/ 15/ 20   N/A
SAINT JOSEPH      13     350/ 16/ 20 1024.4S

$$
&&



USA.gov is the U.S. government's official web portal to all federal, state and local government web resources and services.